[[{"header":{"parameterUnit":"m.s-1","parameterCategory":1,"la1":30.2991,"la2":30.254,"lo1":-89.0895,"lo2":-89.0444,"dy":0.0017,"dx":0.0017,"nx":28,"ny":28,"refTime":"2025-12-29T09:00:00:Z","depth":0,"parameterNumber":2,"parameterNumberName":"U-component_of_WINDS"},"data":[0,0,0,0,0,0,0,0,0,0,0,0,0,0,0,0,0,0,0,0,0,0,0,0,0,0,0,0,0,0,0,0,0,0,0,0,0,0,0,0,0,0,0,0,0,0,0,0,0,0,0,0,0,0,0,0,0,0,1.3127,1.3127,0,1.31,1.31,1.3099,1.3068,1.3067,1.3067,1.3066,1.3037,1.3036,1.3036,0,0,0,0,0,0,0,0,0,0,0,0,0,1.3152,1.3152,1.3127,1.3127,1.3127,1.31,1.3099,1.3099,1.3068,1.3067,1.3067,1.3066,1.3037,1.3036,1.3036,0,0,0,0,0,0,0,0,0,0,0,0,0,1.3135,1.3152,1.3127,1.3108,1.3106,1.31,1.3099,1.3099,1.3068,1.3067,1.3067,1.3066,1.3037,1.3036,1.3036,1.3046,0,0,1.3034,1.3034,0,0,0,0,0,0,0,0,1.3136,1.3134,1.3111,1.3109,1.3107,1.3087,1.3097,1.3081,1.3068,1.3082,1.3066,1.3066,1.3054,1.3052,1.3048,1.3045,1.3044,1.3034,1.3034,1.3033,1.3033,0,0,0,0,0,0,0,1.3137,1.3135,1.3116,1.3111,1.3108,1.31,1.3097,1.3094,1.3072,1.3081,1.3079,1.3076,1.3052,1.3049,1.3047,1.3043,1.3034,1.3034,1.3033,1.3033,1.3048,1.3049,0,0,0,0,0,0,1.3141,1.3136,1.3117,1.3116,1.312,1.31,1.3097,1.3094,1.3072,1.3068,1.3077,1.3075,1.305,1.3048,1.3046,1.3057,1.3033,1.3033,1.3033,1.3047,1.3048,1.3049,0,0,0,0,0,0,1.3142,1.314,1.3118,1.3125,1.3122,1.3101,1.3098,1.3094,1.309,1.3069,1.3065,1.3077,1.3049,1.3047,1.3047,1.3055,1.3033,1.3032,1.3047,1.3048,1.3049,1.3079,0,0,0,0,0,0,1.3143,1.314,1.3144,1.3126,1.3122,1.312,1.3098,1.3094,1.3089,1.3086,1.3068,1.3064,1.3048,1.3048,1.3046,1.3054,1.3032,1.3046,1.3047,1.3048,1.3077,1.3081,1.3084,0,0,0,0,0,1.3144,1.3153,1.3145,1.3142,1.3126,1.312,1.3118,1.31,1.309,1.3094,1.308,1.3065,1.3055,1.3048,1.3046,1.3054,1.3045,1.3047,1.3048,1.3075,1.308,1.3084,0,0,0,0,0,0,1.3173,1.3151,1.314,1.3144,1.3135,1.3115,1.3119,1.3106,1.3099,1.3096,1.3074,1.307,1.3073,1.3064,1.3056,1.3063,1.3048,1.3049,1.3069,1.3073,1.3077,1.3079,1.3031,0,0,0,0,0,1.318,1.3177,1.3158,1.3163,1.3159,1.314,1.3137,1.3124,1.3113,1.3109,1.3095,1.3085,1.3079,1.3076,1.307,1.3076,1.3072,1.3081,1.3084,1.3088,1.3088,1.3091,1.3095,1.3054,1.3054,1.3054,0,0,1.3194,1.3181,1.3181,1.3169,1.316,1.3158,1.3137,1.3135,1.3133,1.3108,1.3107,1.3098,1.3084,1.3088,1.3088,1.308,1.3099,1.309,1.3092,1.3091,1.3093,1.3097,1.3101,1.3056,1.3055,1.3055,0,0,1.3218,1.3209,1.3212,1.3204,1.3191,1.3178,1.318,1.3162,1.3155,1.3154,1.3136,1.3133,1.3124,1.3116,1.311,1.3133,1.3118,1.3132,1.315,1.3153,1.3156,1.3159,1.3167,1.317,1.3133,1.3133,1.3133,0,1.3237,1.3233,1.3215,1.3215,1.321,1.3189,1.3192,1.3185,1.3171,1.3168,1.3159,1.3148,1.3137,1.3138,1.3144,1.3141,1.3141,1.3133,1.3157,1.316,1.3162,1.3169,1.3172,1.3135,1.3135,1.3135,1.3134,0,1.3257,1.3254,1.3259,1.3246,1.3242,1.3244,1.3226,1.3224,1.3213,1.3201,1.3201,1.3188,1.3179,1.3179,1.3167,1.3178,1.3174,1.3162,1.3145,1.3168,1.3174,1.3177,1.3137,1.3137,1.3136,1.3136,0,0,1.3296,1.3275,1.3277,1.3271,1.3256,1.3254,1.3255,1.3247,1.3246,1.3237,1.3237,1.3231,1.322,1.3214,1.3201,1.3204,1.3223,1.3191,1.3191,1.3197,1.3235,1.3243,1.3246,1.3214,1.3214,1.3215,1.3235,0,1.3317,1.3318,1.3303,1.3307,1.3305,1.3285,1.3286,1.3277,1.3267,1.3264,1.3252,1.3248,1.3234,1.323,1.3233,1.322,1.323,1.3219,1.3213,1.3213,1.3216,1.325,1.3259,1.3279,1.3238,1.3238,1.3239,0,1.3341,1.3335,1.3339,1.3325,1.3323,1.3324,1.3316,1.3313,1.3303,1.3295,1.3289,1.3275,1.3275,1.3261,1.3261,1.3253,1.325,1.3244,1.3244,1.3242,1.3226,1.3248,1.3285,1.3288,1.3242,1.3242,1.3242,0,1.3369,1.3362,1.3363,1.3359,1.3342,1.3344,1.3337,1.3326,1.3322,1.3315,1.3313,1.3306,1.3302,1.3297,1.3281,1.3272,1.3282,1.3267,1.3276,1.3276,1.3277,1.3277,1.3314,1.3278,1.3277,1.3277,1.3277,0,1.3393,1.3397,1.3376,1.3377,1.338,1.3363,1.3367,1.3358,1.3349,1.3348,1.3331,1.333,1.331,1.3307,1.3295,1.3297,1.3295,1.3289,1.3285,1.329,1.329,1.3286,1.3284,1.3278,1.3278,1.3278,1.3278,0,1.3424,1.341,1.3411,1.3396,1.3392,1.3395,1.3382,1.3382,1.3372,1.3371,1.337,1.3353,1.3349,1.3334,1.3325,1.3318,1.3322,1.3316,1.3326,1.3324,1.3333,1.3332,1.3367,1.3371,1.3333,1.3334,1.3334,0,1.344,1.3442,1.3428,1.3426,1.342,1.3417,1.3414,1.3398,1.3395,1.3384,1.3386,1.3381,1.3375,1.337,1.3357,1.3351,1.3344,1.3357,1.3343,1.3347,1.3343,1.3343,1.3343,1.3359,1.336,1.336,1.3361,0,1.3469,1.3463,1.3458,1.3453,1.3449,1.3444,1.3437,1.3437,1.3419,1.3416,1.3412,1.3409,1.3401,1.3396,1.3388,1.3381,1.3368,1.3365,1.3367,1.3371,1.3376,1.3373,1.3333,1.3364,1.3364,1.3364,1.3363,1.3363,1.3492,1.3494,1.3484,1.348,1.3474,1.3468,1.3468,1.3458,1.3455,1.3447,1.3438,1.3436,1.3426,1.3414,1.3408,1.3405,1.3398,1.3401,1.3401,1.3402,1.3404,1.3378,1.3404,1.3404,1.3404,1.3404,1.3404,0,1.352,1.3513,1.351,1.3502,1.3499,1.3488,1.3481,1.3479,1.3477,1.3469,1.3465,1.3461,1.3456,1.3444,1.3438,1.3438,1.3432,1.3437,1.3436,1.3435,1.3411,1.341,1.3442,1.3442,1.3442,1.3442,1.3442,1.3442,1.3534,1.3536,1.3528,1.3527,1.352,1.3517,1.3514,1.3509,1.3503,1.3499,1.3495,1.3488,1.3478,1.3472,1.3467,1.3463,1.3462,1.3468,1.3463,1.344,1.3436,1.3433,1.3432,1.3468,1.3469,1.3487,1.3487,1.3487]},{"header":{"parameterUnit":"m.s-1","parameterCategory":1,"la1":30.2991,"la2":30.254,"lo1":-89.0895,"lo2":-89.0444,"dy":0.0017,"dx":0.0017,"nx":28,"ny":28,"refTime":"2025-12-29T09:00:00:Z","depth":0,"parameterNumber":3,"parameterNumberName":"V-component_of_WINDS"},"data":[0,0,0,0,0,0,0,0,0,0,0,0,0,0,0,0,0,0,0,0,0,0,0,0,0,0,0,0,0,0,0,0,0,0,0,0,0,0,0,0,0,0,0,0,0,0,0,0,0,0,0,0,0,0,0,0,0,0,-5.3146,-5.3148,0,-5.3321,-5.3323,-5.3325,-5.3284,-5.328,-5.3277,-5.3274,-5.3449,-5.3456,-5.3464,0,0,0,0,0,0,0,0,0,0,0,0,0,-5.2774,-5.2781,-5.3146,-5.3148,-5.3151,-5.332,-5.3323,-5.3325,-5.3284,-5.328,-5.3276,-5.3272,-5.3446,-5.3455,-5.3465,0,0,0,0,0,0,0,0,0,0,0,0,0,-5.2941,-5.2784,-5.3146,-5.3151,-5.3153,-5.332,-5.3323,-5.3326,-5.3285,-5.328,-5.3275,-5.327,-5.3443,-5.3455,-5.3466,-5.3638,0,0,-5.3502,-5.3507,0,0,0,0,0,0,0,0,-5.2931,-5.2955,-5.3148,-5.3151,-5.3153,-5.3275,-5.3256,-5.343,-5.3286,-5.3235,-5.3274,-5.3268,-5.3395,-5.341,-5.3454,-5.3646,-5.3653,-5.3503,-5.351,-5.3515,-5.3518,0,0,0,0,0,0,0,-5.292,-5.2947,-5.3215,-5.3151,-5.3154,-5.3143,-5.3161,-5.3288,-5.3341,-5.3239,-5.3236,-5.3258,-5.3395,-5.3443,-5.3458,-5.3656,-5.3502,-5.3513,-5.352,-5.3524,-5.3996,-5.4001,0,0,0,0,0,0,-5.2907,-5.2937,-5.321,-5.322,-5.3028,-5.3154,-5.3174,-5.3241,-5.3339,-5.3349,-5.3262,-5.3255,-5.3425,-5.3444,-5.3464,-5.367,-5.3515,-5.3526,-5.3532,-5.3991,-5.3997,-5.4003,0,0,0,0,0,0,-5.2899,-5.2931,-5.3202,-5.3078,-5.3112,-5.3165,-5.3241,-5.3247,-5.3294,-5.3357,-5.3365,-5.3301,-5.3422,-5.3447,-5.3595,-5.3676,-5.3531,-5.3541,-5.3984,-5.3993,-5.4,-5.4085,0,0,0,0,0,0,-5.2888,-5.2929,-5.2996,-5.308,-5.3119,-5.3332,-5.3246,-5.3254,-5.3315,-5.3308,-5.3395,-5.3405,-5.342,-5.3578,-5.3606,-5.3689,-5.355,-5.3977,-5.3988,-5.3998,-5.4076,-5.4096,-5.4113,0,0,0,0,0,-5.2875,-5.3012,-5.2999,-5.3032,-5.3204,-5.3337,-5.3359,-5.3375,-5.3322,-5.3389,-5.3428,-5.3402,-5.3662,-5.3593,-5.3625,-5.3713,-5.3972,-5.3985,-5.3997,-5.4067,-5.4092,-5.4112,0,0,0,0,0,0,-5.2935,-5.3023,-5.301,-5.3179,-5.3251,-5.333,-5.3415,-5.34,-5.3488,-5.3478,-5.3492,-5.3512,-5.3662,-5.3702,-5.3623,-5.3883,-5.3809,-5.3829,-5.3852,-5.3876,-5.3894,-5.3881,-5.356,0,0,0,0,0,-5.2968,-5.307,-5.3141,-5.3283,-5.332,-5.3361,-5.342,-5.3426,-5.3501,-5.3531,-5.3581,-5.3654,-5.3751,-5.3816,-5.3909,-5.4081,-5.4099,-5.4157,-5.4175,-5.419,-5.4207,-5.43,-5.4326,-5.4044,-5.4044,-5.4044,0,0,-5.3036,-5.3097,-5.3161,-5.3297,-5.3353,-5.3457,-5.3387,-5.3501,-5.3578,-5.3547,-5.369,-5.3729,-5.3811,-5.3971,-5.4044,-5.4009,-5.4289,-5.4206,-5.4218,-5.4226,-5.4315,-5.4342,-5.4365,-5.4053,-5.4051,-5.405,0,0,-5.3215,-5.3272,-5.3396,-5.3454,-5.3541,-5.3567,-5.3597,-5.3679,-5.3704,-5.3848,-5.3827,-5.3918,-5.4087,-5.4145,-5.4197,-5.4397,-5.4376,-5.4427,-5.4524,-5.4614,-5.4637,-5.4656,-5.4727,-5.4752,-5.4443,-5.4444,-5.4444,0,-5.3289,-5.3447,-5.3461,-5.3577,-5.3637,-5.3615,-5.374,-5.3795,-5.3907,-5.3948,-5.3907,-5.4118,-5.4172,-5.4345,-5.4394,-5.4437,-5.447,-5.4417,-5.4632,-5.4652,-5.4671,-5.4738,-5.4765,-5.4449,-5.4449,-5.4448,-5.4448,0,-5.3533,-5.3643,-5.3732,-5.3842,-5.3912,-5.4032,-5.4063,-5.4132,-5.4131,-5.4161,-5.4307,-5.437,-5.4476,-5.4517,-5.4517,-5.469,-5.4666,-5.4629,-5.4555,-5.4703,-5.4767,-5.4793,-5.4457,-5.4455,-5.4454,-5.4452,0,0,-5.3755,-5.3871,-5.3904,-5.3953,-5.4047,-5.4131,-5.4249,-5.4353,-5.4411,-5.4489,-5.4587,-5.473,-5.4696,-5.4755,-5.4762,-5.4841,-5.4994,-5.4794,-5.4796,-5.4828,-5.5187,-5.5214,-5.5244,-5.4981,-5.4986,-5.4989,-5.518,0,-5.3942,-5.4151,-5.4167,-5.4355,-5.4455,-5.4435,-5.4537,-5.4605,-5.4637,-5.4725,-5.4759,-5.486,-5.4808,-5.4843,-5.4921,-5.4959,-5.5066,-5.4946,-5.5071,-5.5075,-5.5051,-5.5278,-5.5307,-5.5484,-5.5205,-5.5209,-5.5212,0,-5.4188,-5.4274,-5.4472,-5.455,-5.4593,-5.4685,-5.4781,-5.4867,-5.4942,-5.4959,-5.5025,-5.5021,-5.514,-5.5062,-5.5226,-5.5143,-5.5195,-5.5222,-5.5229,-5.5241,-5.5153,-5.5295,-5.5541,-5.5567,-5.5252,-5.5249,-5.5246,0,-5.4329,-5.4494,-5.4634,-5.4676,-5.4772,-5.4837,-5.4879,-5.495,-5.5012,-5.5095,-5.5135,-5.5231,-5.5283,-5.5357,-5.5378,-5.5319,-5.5541,-5.5465,-5.5557,-5.5557,-5.5605,-5.5602,-5.5862,-5.5639,-5.5639,-5.5638,-5.5638,0,-5.4535,-5.4657,-5.4698,-5.4784,-5.4919,-5.4936,-5.5069,-5.5107,-5.5171,-5.5263,-5.5251,-5.5337,-5.5359,-5.5449,-5.5466,-5.5599,-5.5622,-5.5639,-5.5641,-5.564,-5.5638,-5.5674,-5.5662,-5.5645,-5.5644,-5.5642,-5.5641,0,-5.4716,-5.4748,-5.4899,-5.4977,-5.5,-5.5096,-5.5162,-5.5244,-5.5273,-5.5389,-5.5417,-5.5463,-5.5568,-5.5596,-5.5722,-5.5733,-5.5889,-5.5881,-5.5864,-5.5864,-5.5955,-5.5945,-5.6247,-5.6287,-5.6038,-5.6041,-5.6043,0,-5.4845,-5.4939,-5.5027,-5.5088,-5.5134,-5.5232,-5.5295,-5.5314,-5.538,-5.5472,-5.5543,-5.5647,-5.5731,-5.5899,-5.5943,-5.6038,-5.6032,-5.6131,-5.6046,-5.6041,-5.6033,-5.6027,-5.6036,-5.6147,-5.615,-5.6152,-5.6153,0,-5.5072,-5.5083,-5.5174,-5.5272,-5.5347,-5.5424,-5.5498,-5.5548,-5.5577,-5.5651,-5.5759,-5.5825,-5.5953,-5.6056,-5.6152,-5.6194,-5.6179,-5.618,-5.6206,-5.6205,-5.6192,-5.62,-5.5907,-5.6173,-5.6171,-5.6169,-5.6168,-5.6168,-5.5231,-5.5312,-5.5387,-5.5489,-5.5546,-5.5615,-5.5696,-5.5735,-5.5826,-5.5933,-5.5938,-5.6055,-5.6127,-5.6255,-5.6302,-5.6393,-5.6363,-5.6402,-5.6411,-5.642,-5.6428,-5.6177,-5.6411,-5.641,-5.641,-5.6409,-5.6409,0,-5.5456,-5.5503,-5.5596,-5.57,-5.578,-5.5759,-5.5839,-5.5907,-5.6011,-5.6079,-5.6163,-5.6286,-5.6385,-5.6436,-5.6535,-5.6597,-5.6593,-5.6622,-5.6618,-5.6628,-5.6449,-5.6417,-5.6625,-5.6625,-5.6625,-5.6625,-5.6624,-5.6624,-5.5583,-5.5719,-5.5739,-5.5904,-5.595,-5.6065,-5.6113,-5.6176,-5.6231,-5.6369,-5.6452,-5.6485,-5.6547,-5.6649,-5.6739,-5.6751,-5.6787,-5.6821,-5.683,-5.6662,-5.664,-5.6619,-5.6588,-5.6829,-5.6829,-5.7,-5.7002,-5.7003]}]]